| time (UTC) | temp F | wind direction | speed knots | gust knots | rain 1hr in | rain 24hr in | rain mn in | humidity % | barometer mb |
| 20260507203016 | 55 | 44 | 6.1 | 11.3 | 0.00 | 0.54 | 0.39 | 75 | 1014.7 |
| 20260507201529 | 55 | 10 | 6.1 | 8.7 | 0.00 | 0.54 | 0.39 | 74 | 1014.5 |
| 20260507200026 | 55 | 325 | 4.3 | 7.8 | 0.00 | 0.54 | 0.39 | 73 | 1014.3 |
| 20260507194531 | 55 | 22 | 0.0 | 9.6 | 0.00 | 0.62 | 0.39 | 73 | 1014.2 |
| 20260507193034 | 56 | 9 | 7.0 | 9.6 | 0.00 | 0.62 | 0.39 | 73 | 1013.9 |
| 20260507191525 | 57 | 5 | 7.8 | 10.4 | 0.00 | 0.62 | 0.39 | 71 | 1013.7 |
| 20260507190022 | 57 | 5 | 7.0 | 10.4 | 0.00 | 0.62 | 0.39 | 70 | 1013.6 |
| 20260507184542 | 57 | 34 | 6.1 | 9.6 | 0.00 | 0.70 | 0.39 | 70 | 1013.5 |
| 20260507183025 | 57 | 17 | 8.7 | 11.3 | 0.00 | 0.70 | 0.39 | 71 | 1013.3 |
| 20260507181516 | 58 | 55 | 6.1 | 9.6 | 0.00 | 0.70 | 0.39 | 69 | 1013.1 |
| 20260507180035 | 59 | 36 | 4.3 | 7.8 | 0.00 | 0.70 | 0.39 | 67 | 1012.9 |
| 20260507174532 | 60 | 85 | 4.3 | 7.8 | 0.00 | 0.91 | 0.39 | 66 | 1012.8 |
| 20260507173036 | 61 | 69 | 3.5 | 6.1 | 0.00 | 0.91 | 0.39 | 64 | 1012.8 |
| 20260507171534 | 63 | 20 | 3.5 | 7.8 | 0.00 | 0.91 | 0.39 | 59 | 1012.7 |
| 20260507170028 | 64 | 86 | 0.9 | 7.8 | 0.00 | 0.91 | 0.39 | 57 | 1012.5 |
| 20260507164530 | 64 | 14 | 3.5 | 7.8 | 0.00 | 1.19 | 0.39 | 57 | 1012.5 |
| 20260507163034 | 66 | 219 | 1.7 | 6.1 | 0.00 | 1.19 | 0.39 | 53 | 1012.4 |
| 20260507161549 | 65 | 360 | 0.9 | 6.1 | 0.00 | 1.19 | 0.39 | 57 | 1012.4 |
| 20260507160027 | 65 | 285 | 1.7 | 6.1 | 0.00 | 1.19 | 0.39 | 55 | 1012.4 |
| 20260507154516 | 65 | 242 | 3.5 | 8.7 | 0.00 | 2.46 | 0.39 | 57 | 1012.5 |
| 20260507153035 | 63 | 229 | 2.6 | 7.0 | 0.00 | 2.46 | 0.39 | 65 | 1012.4 |
| 20260507151522 | 64 | 201 | 2.6 | 7.0 | 0.00 | 2.46 | 0.39 | 60 | 1012.4 |
| 20260507150038 | 67 | 186 | 4.3 | 9.6 | 0.00 | 2.46 | 0.39 | 53 | 1012.4 |
| 20260507144534 | 66 | 226 | 2.6 | 12.2 | 0.00 | 2.47 | 0.39 | 53 | 1012.4 |
| 20260507143025 | 67 | 205 | 4.3 | 9.6 | 0.00 | 2.47 | 0.39 | 63 | 1012.3 |
| 20260507141533 | 66 | 199 | 6.1 | 10.4 | 0.00 | 2.47 | 0.39 | 59 | 1012.5 |
| 20260507140025 | 63 | 153 | 1.7 | 6.1 | 0.00 | 2.47 | 0.39 | 64 | 1012.5 |
| 20260507134520 | 66 | 159 | 5.2 | 8.7 | 0.00 | 2.47 | 0.39 | 63 | 1012.6 |
| 20260507133032 | 63 | 186 | 0.9 | 6.1 | 0.00 | 2.47 | 0.39 | 60 | 1012.7 |
| 20260507131522 | 62 | 171 | 0.9 | 6.1 | 0.00 | 2.47 | 0.39 | 61 | 1012.9 |
| 20260507130041 | 64 | 253 | 3.5 | 8.7 | 0.00 | 2.47 | 0.39 | 62 | 1012.9 |
| 20260507124536 | 66 | 217 | 5.2 | 8.7 | 0.00 | 2.47 | 0.39 | 64 | 1013.0 |
| 20260507121531 | 65 | 201 | 4.3 | 8.7 | 0.01 | 2.47 | 0.39 | 59 | 1013.0 |
| 20260507120031 | 64 | 227 | 3.5 | 7.8 | 0.01 | 2.47 | 0.39 | 62 | 1013.0 |
| 20260507114525 | 64 | 236 | 4.3 | 7.0 | 0.01 | 2.47 | 0.39 | 67 | 1013.2 |
| 20260507113058 | 64 | 223 | 4.3 | 10.4 | 0.00 | 2.46 | 0.38 | 66 | 1013.2 |
| 20260507111537 | 63 | 190 | 5.2 | 8.7 | 0.00 | 2.46 | 0.38 | 66 | 1013.5 |
| 20260507110021 | 63 | 198 | 3.5 | 8.7 | 0.00 | 2.46 | 0.38 | 64 | 1013.6 |
| 20260507104540 | 63 | 168 | 3.5 | 8.7 | 0.00 | 2.46 | 0.38 | 66 | 1013.6 |
| 20260507103027 | 62 | 181 | 0.0 | 7.0 | 0.00 | 2.46 | 0.38 | 64 | 1013.7 |
| 20260507101525 | 61 | 114 | 1.7 | 6.1 | 0.00 | 2.46 | 0.38 | 64 | 1013.8 |
| 20260507100036 | 60 | 168 | 2.6 | 7.8 | 0.00 | 2.46 | 0.38 | 72 | 1014.0 |
| 20260507094524 | 60 | 219 | 3.5 | 8.7 | 0.00 | 2.54 | 0.38 | 73 | 1013.7 |
| 20260507093020 | 59 | 360 | 4.3 | 11.3 | 0.00 | 2.54 | 0.38 | 76 | 1013.7 |
| 20260507091536 | 59 | 210 | 5.2 | 7.8 | 0.00 | 2.54 | 0.38 | 77 | 1013.7 |
| 20260507090023 | 59 | 175 | 1.7 | 6.1 | 0.00 | 2.54 | 0.38 | 75 | 1013.8 |
| 20260507084544 | 57 | 240 | 0.0 | 2.6 | 0.00 | 2.62 | 0.38 | 74 | 1013.8 |
| 20260507083037 | 57 | 242 | 0.9 | 3.5 | 0.00 | 2.62 | 0.38 | 80 | 1013.9 |
| 20260507081536 | 56 | 132 | 0.0 | 1.7 | 0.00 | 2.62 | 0.38 | 76 | 1013.8 |
| 20260507080024 | 56 | 111 | 1.7 | 5.2 | 0.01 | 2.62 | 0.38 | 76 | 1013.7 |
| 20260507074538 | 55 | 238 | 0.9 | 2.6 | 0.01 | 2.68 | 0.38 | 80 | 1013.7 |
| 20260507073029 | 54 | 342 | 2.6 | 7.0 | 0.02 | 2.68 | 0.38 | 84 | 1013.6 |
| 20260507071524 | 51 | 20 | 0.0 | 3.5 | 0.02 | 2.68 | 0.38 | 89 | 1013.6 |
| 20260507070035 | 49 | 360 | 4.3 | 7.0 | 0.02 | 2.67 | 0.37 | 90 | 1013.5 |
| 20260507064529 | 48 | 5 | 1.7 | 3.5 | 0.03 | 2.68 | 0.37 | 89 | 1013.4 |
| 20260507063024 | 49 | 283 | 0.0 | 3.5 | 0.02 | 2.67 | 0.36 | 90 | 1013.2 |
| 20260507061537 | 49 | 21 | 2.6 | 7.8 | 0.03 | 2.67 | 0.36 | 88 | 1013.0 |
| 20260507060036 | 49 | 331 | 0.9 | 9.6 | 0.03 | 2.66 | 0.35 | 87 | 1013.1 |
| 20260507054524 | 48 | 17 | 5.2 | 9.6 | 0.03 | 2.70 | 0.34 | 87 | 1013.0 |
| 20260507053036 | 47 | 5 | 6.1 | 9.6 | 0.04 | 2.70 | 0.34 | 88 | 1012.7 |
| 20260507051528 | 47 | 355 | 0.0 | 5.2 | 0.03 | 2.69 | 0.33 | 89 | 1012.7 |
| 20260507050028 | 47 | 355 | 5.2 | 9.6 | 0.03 | 2.68 | 0.32 | 89 | 1012.5 |
| 20260507044536 | 46 | 360 | 4.3 | 7.8 | 0.03 | 2.71 | 0.31 | 90 | 1012.4 |
| 20260507043029 | 46 | 5 | 3.5 | 4.3 | 0.03 | 2.70 | 0.30 | 90 | 1012.3 |
| 20260507041526 | 46 | 10 | 2.6 | 4.3 | 0.04 | 2.70 | 0.30 | 90 | 1012.2 |
| 20260507040018 | 46 | 338 | 2.6 | 4.3 | 0.04 | 2.69 | 0.28 | 89 | 1012.2 |
| 20260507034535 | 47 | 343 | 2.6 | 5.2 | 0.04 | 2.68 | 0.28 | 89 | 1012.3 |
| 20260507033025 | 46 | 333 | 3.5 | 5.2 | 0.03 | 2.67 | 0.27 | 89 | 1012.1 |
| 20260507031520 | 47 | 9 | 1.7 | 9.6 | 0.03 | 2.66 | 0.26 | 89 | 1012.2 |
| 20260507030031 | 47 | 18 | 9.6 | 13.9 | 0.03 | 2.65 | 0.25 | 89 | 1012.1 |
| 20260507024529 | 47 | 28 | 1.7 | 7.0 | 0.03 | 2.65 | 0.24 | 92 | 1012.2 |
| 20260507023036 | 47 | 210 | 0.9 | 7.0 | 0.05 | 2.65 | 0.24 | 91 | 1012.2 |
| 20260507021537 | 47 | 13 | 1.7 | 7.8 | 0.05 | 2.64 | 0.23 | 91 | 1012.1 |
| 20260507020044 | 47 | 360 | 7.8 | 11.3 | 0.06 | 2.63 | 0.22 | 91 | 1011.9 |
| 20260507014520 | 47 | 31 | 7.8 | 10.4 | 0.06 | 2.61 | 0.20 | 91 | 1011.7 |
| 20260507013032 | 47 | 18 | 3.5 | 7.8 | 0.05 | 2.60 | 0.19 | 91 | 1011.5 |
| 20260507011538 | 47 | 17 | 6.1 | 8.7 | 0.06 | 2.59 | 0.18 | 90 | 1011.4 |
| 20260507010038 | 47 | 22 | 2.6 | 5.2 | 0.05 | 2.57 | 0.16 | 91 | 1011.4 |
| 20260507003021 | 47 | 325 | 0.0 | 3.5 | 0.06 | 2.54 | 0.14 | 90 | 1011.6 |
| 20260507001545 | 47 | 5 | 5.2 | 9.6 | 0.05 | 2.52 | 0.12 | 90 | 1011.4 |
| 20260507000040 | 47 | 13 | 4.3 | 7.8 | 0.05 | 2.52 | 0.11 | 90 | 1011.5 |
| 20260506234527 | 47 | 5 | 4.3 | 7.8 | 0.06 | 2.54 | 0.10 | 91 | 1011.5 |
| 20260506233036 | 47 | 20 | 3.5 | 7.0 | 0.05 | 2.52 | 0.08 | 90 | 1011.5 |
| 20260506231531 | 47 | 309 | 7.0 | 10.4 | 0.06 | 2.50 | 0.07 | 91 | 1011.4 |
| 20260506230026 | 47 | 355 | 4.3 | 10.4 | 0.06 | 2.50 | 0.06 | 91 | 1011.3 |
| 20260506224535 | 46 | 10 | 6.1 | 9.6 | 0.06 | 2.65 | 0.04 | 91 | 1011.4 |
| 20260506223033 | 46 | 30 | 5.2 | 8.7 | 0.06 | 2.64 | 0.03 | 92 | 1011.4 |
| 20260506221525 | 46 | 355 | 5.2 | 8.7 | 0.06 | 2.62 | 0.01 | 92 | 1011.4 |
| 20260506220037 | 45 | 355 | 5.2 | 8.7 | 0.06 | 2.61 | 0.00 | 92 | 1011.3 |
| 20260506214532 | 46 | 349 | 3.5 | 5.2 | 0.07 | 3.04 | 2.59 | 91 | 1011.4 |
| 20260506213024 | 46 | 329 | 3.5 | 8.7 | 0.07 | 3.03 | 2.58 | 91 | 1011.3 |
| 20260506211537 | 46 | 24 | 7.0 | 10.4 | 0.08 | 3.01 | 2.56 | 91 | 1011.3 |
| 20260506210046 | 46 | 30 | 4.3 | 7.0 | 0.09 | 3.00 | 2.54 | 91 | 1011.4 |
| 20260506204522 | 46 | 34 | 2.6 | 7.0 | 0.08 | 3.02 | 2.52 | 91 | 1011.4 |